Regional Weather Roundup
Issued by NWS

Home | Current Version | Previous Version | Text Only | Print | Product List | Glossary Off
Versions: 1 2 3 4 5 6 7 8 9 10 11 12 13 14 15 16 17 18 19 20 21 22 23 24 25 26 27 28 29 30 31 32 33 34 35 36 37 38 39 40 41 42 43 44 45 46 47 48 49 50

807
ASUS43 KLSX 220907
RWRMO

WEATHER SUMMARY FOR MISSOURI
NATIONAL WEATHER SERVICE SPRINGFIELD MO
400 AM CDT SAT JUL 22 2017

NOTE: "FAIR" INDICATES FEW OR NO CLOUDS BELOW 12,000 FEET WITH NO
       SIGNIFICANT WEATHER AND/OR OBSTRUCTIONS TO VISIBILITY.
       CURRENT SKY AND/OR WEATHER CONDITIONS ARE NOT AVAILABLE FOR
       CHILLICOTHE AND FARMINGTON.

MOZ001>031-035>038-043-044-053-054-221000-
...NORTHERN AND WESTERN MISSOURI...

CITY           SKY/WX    TMP DP  RH WIND       PRES   REMARKS
KANSAS CTY INT CLEAR     83  72  69 SW17      29.81F
KANSAS C DTWN  CLEAR     86  73  65 SW13G22   29.80F HX  93
LEE`S SUMMIT   CLEAR     83  73  72 SW16      29.84S
ST JOSEPH      CLEAR     83  74  74 SW14      29.77F
CHILLICOTHE      N/A     83  73  72 S9        29.80S
KIRKSVILLE     PTCLDY    83  71  67 SW10G22   29.82S

$$
MOZ066>068-077>081-088>096-101>105-221000-
...SOUTHWEST MISSOURI...

CITY           SKY/WX    TMP DP  RH WIND       PRES   REMARKS
SPRINGFIELD    CLEAR     76  72  87 SW7       29.93S
JOPLIN         CLEAR     82  72  71 SW10      29.91S
BRANSON          N/A     77  70  78 SW5       29.96S

$$
MOZ032>034-039>042-045>050-055>058-069>072-221000-
...CENTRAL MISSOURI...

CITY           SKY/WX    TMP DP  RH WIND       PRES   REMARKS
COLUMBIA       CLEAR     77  70  79 S6        29.87S
JEFFERSON CITY CLEAR     81  72  74 VRB3      29.86R
ROLLA          CLEAR     76  72  87 SW6       29.90R
SEDALIA        CLEAR     83  73  72 SW14      29.87S
WHITEMAN AFB   CLEAR     81  73  76 SW15      29.84S
WARRENSBURG    CLEAR     79  68  69 S9        29.85S
OSAGE BEACH    CLEAR     78  71  79 SW5       29.90R

$$
MOZ051-052-059>065-221000-
...EAST CENTRAL MISSOURI...

CITY           SKY/WX    TMP DP  RH WIND       PRES   REMARKS
ST LOUIS INTL  CLEAR     87  72  60 SW10      29.87R HX  93
SPIRIT OF STL  CLEAR     82  73  74 W5        29.86R
ST CHARLES     CLEAR     81  73  76 SW8       29.84R

$$
MOZ072>076-082>087-097>100-106>115-221000-
...SOUTH CENTRAL AND SOUTHEAST MISSOURI...

CITY           SKY/WX    TMP DP  RH WIND       PRES   REMARKS
CAPE GIRARDEAU CLEAR     77  74  90 CALM      29.90R
FARMINGTON     CLEAR     77  74  90 S6        29.92R
POPLAR BLUFF   CLEAR     79  77  94 SW5       29.90S
WEST PLAINS    CLEAR     78  72  81 SW6       29.95S

$$




USA.gov is the U.S. government's official web portal to all federal, state and local government web resources and services.